User: anonymous
Location: SAPM � Hemmingford
(45.0500°N, 73.5833°W)
Time: 15:25:34
(UTC-04:00)
Language:

Cosmos 1674 Rocket - Orbit

View from above orbital plane
View from above orbital plane
View from above satellite
View from above satellite

Ground track
Ground track

The orbit data is extracted from the following two-line orbital elements,

1 15945U 85069B   14105.69399313  .00000397  00000-0  45359-4 0  6228
2 15945 082.5258 137.6101 0021329 141.5078 357.6092 14.83297383549253
Epoch (UTC): 15 April 2014 16:39:21
Eccentricity: 0.0021329
inclination: 82.5258°
perigee height: 604 km
apogee height: 634 km
right ascension of ascending node: 137.6101°
argument of perigee: 141.5078°
revolutions per day: 14.83297383
mean anomaly at epoch: 357.6092°
orbit number at epoch: 54925

The dashed part of the orbit path shows where the satellite is in the earth's shadow,  

DLR